Track COSMOS 1235 now! 10-day predictions COSMOS 1235 is classified as:
1 12114U 80102H 18110.40673889 -.00000012 +00000-0 +25395-4 0 9998 2 12114 073.9929 081.9086 0032997 297.6474 177.4813 12.56184754711408